Time,TemperatureF,DewpointF,PressureIn,WindDirection,WindDirectionDegrees,WindSpeedMPH,WindSpeedGustMPH,Humidity,HourlyPrecipIn,Conditions,Clouds,dailyrainin,SoftwareType,DateUTC
2013-05-26 00:02:00,50.0,43.0,30.31,NW,319,0.0,0.0,76,0.00,,,0.00,,2013-05-26 04:02:00,
2013-05-26 00:12:00,50.0,43.0,30.31,NW,319,0.0,0.0,76,0.00,,,0.00,,2013-05-26 04:12:00,
2013-05-26 00:23:00,49.0,42.0,30.32,NW,319,0.0,1.0,78,0.00,,,0.00,,2013-05-26 04:23:00,
2013-05-26 00:33:00,48.0,42.0,30.31,NW,319,0.0,0.0,79,0.00,,,0.00,,2013-05-26 04:33:00,
2013-05-26 00:42:00,48.0,42.0,30.31,NW,319,0.0,0.0,79,0.00,,,0.00,,2013-05-26 04:42:00,
2013-05-26 00:52:00,47.0,41.0,30.31,NW,319,0.0,0.0,81,0.00,,,0.00,,2013-05-26 04:52:00,
2013-05-26 01:02:00,46.0,41.0,30.31,NW,319,0.0,0.0,83,0.00,,,0.00,,2013-05-26 05:02:00,
2013-05-26 01:12:00,46.0,41.0,30.31,NW,319,0.0,0.0,83,0.00,,,0.00,,2013-05-26 05:12:00,
2013-05-26 01:22:00,46.0,42.0,30.31,NW,319,0.0,0.0,85,0.00,,,0.00,,2013-05-26 05:22:00,
2013-05-26 01:32:00,45.0,41.0,30.30,NW,319,0.0,0.0,87,0.00,,,0.00,,2013-05-26 05:32:00,
2013-05-26 01:42:00,45.0,41.0,30.30,NW,319,0.0,0.0,87,0.00,,,0.00,,2013-05-26 05:42:00,
2013-05-26 01:52:00,45.0,41.0,30.31,NW,319,0.0,0.0,87,0.00,,,0.00,,2013-05-26 05:52:00,
2013-05-26 02:01:00,44.0,41.0,30.31,NW,319,0.0,0.0,89,0.00,,,0.00,,2013-05-26 06:01:00,
2013-05-26 02:12:00,44.0,41.0,30.31,NW,319,0.0,0.0,89,0.00,,,0.00,,2013-05-26 06:12:00,
2013-05-26 02:22:00,44.0,41.0,30.30,NW,319,0.0,0.0,89,0.00,,,0.00,,2013-05-26 06:22:00,
2013-05-26 02:32:00,44.0,41.0,30.30,NW,319,0.0,1.0,89,0.00,,,0.00,,2013-05-26 06:32:00,
2013-05-26 02:42:00,44.0,41.0,30.30,NW,319,0.0,1.0,89,0.00,,,0.00,,2013-05-26 06:42:00,
2013-05-26 02:52:00,44.0,41.0,30.30,NW,319,0.0,1.0,89,0.00,,,0.00,,2013-05-26 06:52:00,
2013-05-26 03:01:00,44.0,41.0,30.30,NW,319,0.0,1.0,89,0.00,,,0.00,,2013-05-26 07:01:00,
2013-05-26 03:11:00,44.0,41.0,30.30,NW,319,0.0,1.0,89,0.00,,,0.00,,2013-05-26 07:11:00,
2013-05-26 03:21:00,44.0,41.0,30.29,NW,319,0.0,1.0,89,0.00,,,0.00,,2013-05-26 07:21:00,
2013-05-26 03:31:00,44.0,41.0,30.29,NW,319,0.0,2.0,89,0.00,,,0.00,,2013-05-26 07:31:00,
2013-05-26 03:42:00,44.0,41.0,30.29,NW,319,0.0,2.0,89,0.00,,,0.00,,2013-05-26 07:42:00,
2013-05-26 03:52:00,44.0,41.0,30.28,NW,319,0.0,1.0,89,0.00,,,0.00,,2013-05-26 07:52:00,
2013-05-26 04:01:00,43.0,40.0,30.28,NW,319,0.0,0.0,90,0.00,,,0.00,,2013-05-26 08:01:00,
2013-05-26 04:12:00,43.0,40.0,30.28,NW,319,0.0,0.0,90,0.00,,,0.00,,2013-05-26 08:12:00,
2013-05-26 04:21:00,43.0,40.0,30.27,NW,319,0.0,0.0,90,0.00,,,0.00,,2013-05-26 08:21:00,
2013-05-26 04:32:00,43.0,41.0,30.27,NW,319,0.0,1.0,91,0.00,,,0.00,,2013-05-26 08:32:00,
2013-05-26 04:42:00,43.0,41.0,30.27,NW,319,0.0,1.0,91,0.00,,,0.00,,2013-05-26 08:42:00,
2013-05-26 04:53:00,42.0,40.0,30.27,NW,319,0.0,0.0,91,0.00,,,0.00,,2013-05-26 08:53:00,
2013-05-26 05:01:00,42.0,40.0,30.27,NW,319,0.0,0.0,92,0.00,,,0.00,,2013-05-26 09:01:00,
2013-05-26 05:11:00,42.0,40.0,30.27,NW,319,0.0,0.0,92,0.00,,,0.00,,2013-05-26 09:11:00,
2013-05-26 05:21:00,42.0,40.0,30.28,NW,319,0.0,0.0,92,0.00,,,0.00,,2013-05-26 09:21:00,
2013-05-26 05:33:00,42.0,40.0,30.29,NW,319,0.0,2.0,93,0.00,,,0.00,,2013-05-26 09:33:00,
2013-05-26 05:42:00,42.0,40.0,30.29,NW,319,0.0,2.0,93,0.00,,,0.00,,2013-05-26 09:42:00,
2013-05-26 05:53:00,42.0,40.0,30.29,NW,319,0.0,1.0,93,0.00,,,0.00,,2013-05-26 09:53:00,
2013-05-26 06:02:00,43.0,41.0,30.29,North,355,0.0,2.0,93,0.00,,,0.00,,2013-05-26 10:02:00,
2013-05-26 06:12:00,43.0,41.0,30.29,North,355,0.0,2.0,93,0.00,,,0.00,,2013-05-26 10:12:00,
2013-05-26 06:23:00,46.0,42.0,30.29,ESE,115,0.0,3.0,85,0.00,,,0.00,,2013-05-26 10:23:00,
2013-05-26 06:32:00,47.0,42.0,30.29,ESE,109,1.0,4.0,82,0.00,,,0.00,,2013-05-26 10:32:00,
2013-05-26 06:42:00,47.0,42.0,30.29,ESE,109,1.0,4.0,82,0.00,,,0.00,,2013-05-26 10:42:00,
2013-05-26 06:52:00,47.0,42.0,30.29,ENE,67,0.0,3.0,82,0.00,,,0.00,,2013-05-26 10:52:00,
2013-05-26 07:03:00,47.0,41.0,30.30,ESE,115,0.0,3.0,81,0.00,,,0.00,,2013-05-26 11:03:00,
2013-05-26 07:11:00,47.0,41.0,30.30,ESE,115,0.0,3.0,81,0.00,,,0.00,,2013-05-26 11:11:00,
2013-05-26 07:22:00,47.0,41.0,30.30,ESE,117,0.0,3.0,81,0.00,,,0.00,,2013-05-26 11:22:00,
2013-05-26 07:32:00,48.0,42.0,30.30,ESE,111,1.0,4.0,79,0.00,,,0.00,,2013-05-26 11:32:00,
2013-05-26 07:42:00,48.0,42.0,30.30,ESE,111,1.0,4.0,79,0.00,,,0.00,,2013-05-26 11:42:00,
2013-05-26 07:52:00,49.0,42.0,30.30,ESE,109,1.0,5.0,76,0.00,,,0.00,,2013-05-26 11:52:00,
2013-05-26 08:02:00,50.0,42.0,30.30,ESE,107,3.0,6.0,73,0.00,,,0.00,,2013-05-26 12:02:00,
2013-05-26 08:12:00,50.0,42.0,30.30,ESE,107,3.0,6.0,73,0.00,,,0.00,,2013-05-26 12:12:00,
2013-05-26 08:21:00,52.0,43.0,30.30,SE,125,2.0,7.0,70,0.00,,,0.00,,2013-05-26 12:21:00,
2013-05-26 08:32:00,53.0,43.0,30.31,East,85,1.0,7.0,68,0.00,,,0.00,,2013-05-26 12:32:00,
2013-05-26 08:42:00,53.0,43.0,30.31,East,85,1.0,7.0,68,0.00,,,0.00,,2013-05-26 12:42:00,
2013-05-26 08:52:00,54.0,42.0,30.31,ESE,113,3.0,7.0,64,0.00,,,0.00,,2013-05-26 12:52:00,
2013-05-26 09:02:00,55.0,43.0,30.31,SE,142,3.0,7.0,63,0.00,,,0.00,,2013-05-26 13:02:00,
2013-05-26 09:11:00,55.0,43.0,30.31,SE,142,3.0,7.0,63,0.00,,,0.00,,2013-05-26 13:11:00,
2013-05-26 09:21:00,56.0,43.0,30.31,SSE,150,3.0,8.0,61,0.00,,,0.00,,2013-05-26 13:21:00,
2013-05-26 09:32:00,56.0,43.0,30.31,SE,126,2.0,7.0,61,0.00,,,0.00,,2013-05-26 13:32:00,
2013-05-26 09:42:00,56.0,43.0,30.31,SE,126,2.0,7.0,61,0.00,,,0.00,,2013-05-26 13:42:00,
2013-05-26 09:52:00,56.0,43.0,30.31,SE,126,2.0,7.0,61,0.00,,,0.00,,2013-05-26 13:52:00,
2013-05-26 10:02:00,60.0,44.0,30.32,SSE,151,2.0,7.0,55,0.00,,,0.00,,2013-05-26 14:02:00,
2013-05-26 10:11:00,60.0,44.0,30.32,SSE,151,2.0,7.0,55,0.00,,,0.00,,2013-05-26 14:11:00,
2013-05-26 10:21:00,61.0,43.0,30.32,SE,132,6.0,9.0,51,0.00,,,0.00,,2013-05-26 14:21:00,
2013-05-26 10:32:00,61.0,43.0,30.32,ESE,111,4.0,9.0,51,0.00,,,0.00,,2013-05-26 14:32:00,
2013-05-26 10:42:00,61.0,43.0,30.32,ESE,111,4.0,9.0,51,0.00,,,0.00,,2013-05-26 14:42:00,
2013-05-26 10:52:00,61.0,43.0,30.31,ESE,123,4.0,8.0,52,0.00,,,0.00,,2013-05-26 14:52:00,
2013-05-26 11:01:00,62.0,44.0,30.30,SSW,196,3.0,8.0,51,0.00,,,0.00,,2013-05-26 15:01:00,
2013-05-26 11:12:00,62.0,44.0,30.30,SSW,196,3.0,8.0,51,0.00,,,0.00,,2013-05-26 15:12:00,
2013-05-26 11:22:00,63.0,45.0,30.30,SE,128,3.0,7.0,51,0.00,,,0.00,,2013-05-26 15:22:00,
2013-05-26 11:33:00,64.0,45.0,30.30,SE,140,3.0,9.0,50,0.00,,,0.00,,2013-05-26 15:33:00,
2013-05-26 11:43:00,64.0,45.0,30.30,SE,140,3.0,9.0,50,0.00,,,0.00,,2013-05-26 15:43:00,
2013-05-26 11:53:00,64.0,44.0,30.31,SE,126,2.0,8.0,48,0.00,,,0.00,,2013-05-26 15:53:00,
2013-05-26 12:03:00,66.0,43.0,30.30,SE,138,5.0,10.0,44,0.00,,,0.00,,2013-05-26 16:03:00,
2013-05-26 12:12:00,66.0,43.0,30.30,SE,138,5.0,10.0,44,0.00,,,0.00,,2013-05-26 16:12:00,
2013-05-26 12:23:00,66.0,45.0,30.30,SSE,159,5.0,11.0,46,0.00,,,0.00,,2013-05-26 16:23:00,
2013-05-26 12:33:00,66.0,43.0,30.30,ESE,120,4.0,10.0,43,0.00,,,0.00,,2013-05-26 16:33:00,
2013-05-26 12:42:00,66.0,43.0,30.30,ESE,120,4.0,10.0,43,0.00,,,0.00,,2013-05-26 16:42:00,
2013-05-26 12:53:00,67.0,43.0,30.31,ESE,117,2.0,9.0,42,0.00,,,0.00,,2013-05-26 16:53:00,
2013-05-26 13:02:00,67.0,43.0,30.30,SE,142,5.0,11.0,41,0.00,,,0.00,,2013-05-26 17:02:00,
2013-05-26 13:11:00,67.0,43.0,30.30,SE,142,5.0,11.0,41,0.00,,,0.00,,2013-05-26 17:11:00,
2013-05-26 13:22:00,68.0,43.0,30.30,SSE,150,5.0,11.0,40,0.00,,,0.00,,2013-05-26 17:22:00,
2013-05-26 13:32:00,68.0,44.0,30.29,SE,135,3.0,10.0,42,0.00,,,0.00,,2013-05-26 17:32:00,
2013-05-26 13:42:00,68.0,44.0,30.29,SE,135,3.0,10.0,42,0.00,,,0.00,,2013-05-26 17:42:00,
2013-05-26 13:52:00,68.0,44.0,30.28,ESE,122,2.0,8.0,42,0.00,,,0.00,,2013-05-26 17:52:00,
2013-05-26 14:01:00,68.0,43.0,30.28,SE,130,3.0,8.0,41,0.00,,,0.00,,2013-05-26 18:01:00,
2013-05-26 14:12:00,68.0,43.0,30.28,SE,130,3.0,8.0,41,0.00,,,0.00,,2013-05-26 18:12:00,
2013-05-26 14:21:00,68.0,43.0,30.27,SSW,194,2.0,8.0,41,0.00,,,0.00,,2013-05-26 18:21:00,
2013-05-26 14:32:00,68.0,43.0,30.27,SSW,194,2.0,8.0,41,0.00,,,0.00,,2013-05-26 18:32:00,
2013-05-26 14:42:00,68.0,43.0,30.27,SSW,194,2.0,8.0,41,0.00,,,0.00,,2013-05-26 18:42:00,
2013-05-26 14:52:00,69.0,42.0,30.26,SSE,167,4.0,11.0,38,0.00,,,0.00,,2013-05-26 18:52:00,
2013-05-26 15:01:00,69.0,42.0,30.26,SE,135,4.0,9.0,38,0.00,,,0.00,,2013-05-26 19:01:00,
2013-05-26 15:11:00,69.0,42.0,30.26,SE,135,4.0,9.0,38,0.00,,,0.00,,2013-05-26 19:11:00,
2013-05-26 15:22:00,69.0,42.0,30.25,SE,140,2.0,9.0,37,0.00,,,0.00,,2013-05-26 19:22:00,
2013-05-26 15:32:00,69.0,44.0,30.24,ESE,107,2.0,11.0,40,0.00,,,0.00,,2013-05-26 19:32:00,
2013-05-26 15:42:00,69.0,44.0,30.24,ESE,107,2.0,11.0,40,0.00,,,0.00,,2013-05-26 19:42:00,
2013-05-26 15:52:00,69.0,46.0,30.24,ESE,121,2.0,7.0,43,0.00,,,0.00,,2013-05-26 19:52:00,
2013-05-26 16:02:00,69.0,42.0,30.24,SSE,160,3.0,8.0,37,0.00,,,0.00,,2013-05-26 20:02:00,
2013-05-26 16:11:00,69.0,42.0,30.24,SSE,160,3.0,8.0,37,0.00,,,0.00,,2013-05-26 20:11:00,
2013-05-26 16:22:00,69.0,42.0,30.24,SE,128,4.0,9.0,38,0.00,,,0.00,,2013-05-26 20:22:00,
2013-05-26 16:32:00,71.0,43.0,30.23,SSE,151,4.0,11.0,37,0.00,,,0.00,,2013-05-26 20:32:00,
2013-05-26 16:42:00,71.0,43.0,30.23,SSE,151,4.0,11.0,37,0.00,,,0.00,,2013-05-26 20:42:00,
2013-05-26 16:52:00,71.0,42.0,30.23,SSE,155,3.0,9.0,35,0.00,,,0.00,,2013-05-26 20:52:00,
2013-05-26 17:01:00,70.0,43.0,30.22,South,169,3.0,10.0,38,0.00,,,0.00,,2013-05-26 21:01:00,
2013-05-26 17:11:00,70.0,43.0,30.22,South,169,3.0,10.0,38,0.00,,,0.00,,2013-05-26 21:11:00,
2013-05-26 17:22:00,70.0,42.0,30.22,SE,146,4.0,8.0,36,0.00,,,0.00,,2013-05-26 21:22:00,
2013-05-26 17:33:00,71.0,43.0,30.21,SSE,164,3.0,10.0,36,0.00,,,0.00,,2013-05-26 21:33:00,
2013-05-26 17:43:00,71.0,43.0,30.21,SSE,164,3.0,10.0,36,0.00,,,0.00,,2013-05-26 21:43:00,
2013-05-26 17:53:00,71.0,43.0,30.21,SSE,154,2.0,8.0,37,0.00,,,0.00,,2013-05-26 21:53:00,
2013-05-26 18:02:00,71.0,42.0,30.21,SSE,159,4.0,9.0,35,0.00,,,0.00,,2013-05-26 22:02:00,
2013-05-26 18:12:00,71.0,42.0,30.21,SSE,159,4.0,9.0,35,0.00,,,0.00,,2013-05-26 22:12:00,
2013-05-26 18:23:00,70.0,42.0,30.20,SSE,163,2.0,7.0,36,0.00,,,0.00,,2013-05-26 22:23:00,
2013-05-26 18:33:00,71.0,42.0,30.20,SSE,163,5.0,9.0,35,0.00,,,0.00,,2013-05-26 22:33:00,
2013-05-26 18:42:00,71.0,41.0,30.19,SE,127,5.0,12.0,34,0.00,,,0.00,,2013-05-26 22:42:00,
2013-05-26 18:53:00,71.0,41.0,30.19,SE,127,5.0,12.0,34,0.00,,,0.00,,2013-05-26 22:53:00,
2013-05-26 19:02:00,70.0,41.0,30.18,ESE,122,5.0,11.0,35,0.00,,,0.00,,2013-05-26 23:02:00,
2013-05-26 19:12:00,70.0,41.0,30.18,ESE,122,5.0,11.0,35,0.00,,,0.00,,2013-05-26 23:12:00,
2013-05-26 19:22:00,70.0,42.0,30.17,ESE,115,4.0,9.0,36,0.00,,,0.00,,2013-05-26 23:22:00,
2013-05-26 19:32:00,70.0,42.0,30.17,SE,124,4.0,9.0,36,0.00,,,0.00,,2013-05-26 23:32:00,
2013-05-26 19:43:00,70.0,42.0,30.17,SE,124,4.0,9.0,36,0.00,,,0.00,,2013-05-26 23:43:00,
2013-05-26 19:52:00,69.0,41.0,30.17,ESE,121,3.0,8.0,36,0.00,,,0.00,,2013-05-26 23:52:00,
2013-05-26 20:02:00,69.0,42.0,30.17,SSE,148,3.0,7.0,37,0.00,,,0.00,,2013-05-27 00:02:00,
2013-05-26 20:11:00,69.0,42.0,30.17,SSE,148,3.0,7.0,37,0.00,,,0.00,,2013-05-27 00:11:00,
2013-05-26 20:21:00,69.0,42.0,30.17,ESE,123,1.0,5.0,38,0.00,,,0.00,,2013-05-27 00:21:00,
2013-05-26 20:32:00,68.0,43.0,30.17,SE,134,1.0,4.0,40,0.00,,,0.00,,2013-05-27 00:32:00,
2013-05-26 20:42:00,68.0,43.0,30.17,SE,134,1.0,4.0,40,0.00,,,0.00,,2013-05-27 00:42:00,
2013-05-26 20:52:00,68.0,44.0,30.18,SE,127,0.0,2.0,42,0.00,,,0.00,,2013-05-27 00:52:00,
2013-05-26 21:01:00,67.0,44.0,30.18,SE,130,0.0,2.0,43,0.00,,,0.00,,2013-05-27 01:01:00,
2013-05-26 21:11:00,67.0,44.0,30.18,SE,130,0.0,2.0,43,0.00,,,0.00,,2013-05-27 01:11:00,
2013-05-26 21:22:00,67.0,47.0,30.18,SE,130,0.0,0.0,48,0.00,,,0.00,,2013-05-27 01:22:00,
2013-05-26 21:31:00,66.0,46.0,30.17,SE,130,0.0,2.0,48,0.00,,,0.00,,2013-05-27 01:31:00,
2013-05-26 21:42:00,66.0,45.0,30.17,SE,146,1.0,4.0,47,0.00,,,0.00,,2013-05-27 01:42:00,
2013-05-26 21:52:00,66.0,45.0,30.17,SE,146,1.0,4.0,47,0.00,,,0.00,,2013-05-27 01:52:00,
2013-05-26 22:01:00,65.0,48.0,30.17,SE,146,0.0,1.0,55,0.00,,,0.00,,2013-05-27 02:01:00,
2013-05-26 22:11:00,65.0,48.0,30.17,SE,146,0.0,1.0,55,0.00,,,0.00,,2013-05-27 02:11:00,
2013-05-26 22:22:00,63.0,49.0,30.19,SSE,166,0.0,3.0,60,0.00,,,0.00,,2013-05-27 02:22:00,
2013-05-26 22:32:00,63.0,51.0,30.19,SE,126,1.0,2.0,66,0.00,,,0.00,,2013-05-27 02:32:00,
2013-05-26 22:42:00,63.0,51.0,30.19,SE,126,1.0,2.0,66,0.00,,,0.00,,2013-05-27 02:42:00,
2013-05-26 22:52:00,62.0,51.0,30.20,SE,136,1.0,3.0,68,0.00,,,0.00,,2013-05-27 02:52:00,
2013-05-26 23:02:00,62.0,52.0,30.19,SE,143,0.0,2.0,70,0.00,,,0.00,,2013-05-27 03:02:00,
2013-05-26 23:11:00,62.0,52.0,30.19,SE,143,0.0,2.0,70,0.00,,,0.00,,2013-05-27 03:11:00,
2013-05-26 23:21:00,61.0,52.0,30.19,SSE,149,0.0,1.0,73,0.00,,,0.00,,2013-05-27 03:21:00,
2013-05-26 23:33:00,61.0,53.0,30.19,SSE,149,0.0,1.0,74,0.00,,,0.00,,2013-05-27 03:33:00,
2013-05-26 23:43:00,61.0,53.0,30.19,SSE,149,0.0,1.0,74,0.00,,,0.00,,2013-05-27 03:43:00,
2013-05-26 23:53:00,60.0,52.0,30.18,SSE,149,0.0,2.0,75,0.00,,,0.00,,2013-05-27 03:53:00,